Inquirer Daily News

Weather

Get conditions and forecasts for any City, State, ZIP code or Country:  
Northeast Philadelphia, PA
on Wednesday, December 26, 2012

Wednesday
Previous Day Next Day
Daily Summary
 ActualAverage (KTTN)Record (KTTN)
Temperature
Mean Temperature °F 32°F  
Max Temperature 42°F 40°F 68°F (1889)
Min Temperature 28°F 25°F 0°F (1983)
Degree Days
Heating Degree Days 30 33  
Month to date heating degree days 754  
Since 1 July heating degree days 1730  
Cooling Degree Days 0 0  
Month to date cooling degree days 0  
Year to date cooling degree days 965  
Moisture
Dew Point 30°F   
Average Humidity 85    
Maximum Humidity 97    
Minimum Humidity 72    
Precipitation
Precipitation 1.13 in 0.09 in 1.40 in (2009)
Month to date precipitation 3.28  
Year to date precipitation 46.02  
Wind
Wind Speed 13 mph   
Max Wind Speed 33 mph   
Max Gust Speed 47 mph   
Visibility 7 miles   
Events Rain   

Key: T is trace of precipitation, MM is missing value
Source: NWS Daily Summary
Time(EST)TemperatureDew PointHumidity Pressure Visibility Wind DirectionWind SpeedGust SpeedPrecipitationEvents Conditions
12:54 AM 30.0°F 23.0°F 75% 30.29 in 10.0 miles NNW 4.6 mph - N/A   Clear
1:54 AM 28.4°F 23.0°F 80% 30.28 in 10.0 miles North 5.8 mph - N/A   Clear
2:54 AM 28.0°F 23.0°F 81% 30.29 in 10.0 miles North 4.6 mph - N/A   Clear
4:54 AM 28.0°F 21.9°F 78% 30.27 in 10.0 miles NE 6.9 mph - N/A   Clear
5:54 AM 28.0°F 23.0°F 81% 30.25 in 10.0 miles NE 6.9 mph - N/A   Clear
6:54 AM 28.9°F 23.0°F 78% 30.25 in 10.0 miles NE 10.4 mph - N/A   Clear
7:54 AM 28.9°F 23.0°F 78% 30.24 in 10.0 miles NE 6.9 mph - N/A   Clear
8:54 AM 30.0°F 23.0°F 75% 30.23 in 10.0 miles NE 10.4 mph - N/A   Overcast
9:54 AM 30.0°F 23.0°F 75% 30.22 in 10.0 miles NE 8.1 mph - N/A   Overcast
10:54 AM 30.9°F 23.0°F 72% 30.16 in 10.0 miles ENE 13.8 mph - N/A   Overcast
11:24 AM 30.2°F 23.0°F 75% 30.14 in 10.0 miles ENE 11.5 mph - N/A   Overcast
11:54 AM 32.0°F 24.1°F 73% 30.12 in 10.0 miles NE 13.8 mph - N/A   Overcast
12:54 PM 33.1°F 25.0°F 72% 30.06 in 10.0 miles ENE 13.8 mph 23.0 mph 0.00 in   Overcast
1:54 PM 33.1°F 27.0°F 78% 30.00 in 7.0 miles NE 15.0 mph - 0.01 in Rain Light Rain
1:58 PM 33.8°F 26.6°F 75% 29.99 in 6.0 miles NE 16.1 mph - 0.00 in Rain Light Freezing Rain
2:18 PM 33.8°F 28.4°F 81% 29.96 in 5.0 miles NE 17.3 mph - 0.02 in Rain Light Freezing Rain
2:23 PM 33.8°F 28.4°F 81% 29.95 in 4.0 miles NE 17.3 mph - 0.02 in Rain Light Freezing Rain
2:52 PM 33.8°F 30.2°F 87% 29.91 in 4.0 miles ENE 20.7 mph 27.6 mph 0.07 in Rain Light Rain
2:54 PM 33.1°F 30.0°F 89% 29.91 in 4.0 miles ENE 20.7 mph 29.9 mph 0.07 in Rain Light Rain
3:21 PM 33.8°F 32.0°F 93% 29.89 in 2.5 miles ENE 18.4 mph 23.0 mph 0.04 in Rain Rain
3:30 PM 35.6°F 33.8°F 93% 29.88 in 4.0 miles ENE 23.0 mph 29.9 mph 0.04 in Rain Light Rain
3:54 PM 35.1°F 34.0°F 96% 29.83 in 4.0 miles ENE 24.2 mph 35.7 mph 0.08 in Rain Rain
4:54 PM 37.0°F 36.0°F 96% 29.78 in 7.0 miles ENE 18.4 mph 26.5 mph 0.05 in Rain Light Rain
5:54 PM 39.9°F 39.0°F 97% 29.73 in 5.0 miles ENE 21.9 mph 32.2 mph 0.09 in Rain Rain
6:54 PM 42.1°F 39.9°F 92% 29.68 in 5.0 miles ENE 21.9 mph 29.9 mph 0.13 in Rain Rain
7:20 PM 42.8°F 41.0°F 93% 29.67 in 4.0 miles East 25.3 mph 31.1 mph 0.10 in Rain Heavy Rain
7:54 PM 41.0°F 39.9°F 96% 29.62 in 4.0 miles ENE 19.6 mph 31.1 mph 0.29 in Rain Heavy Rain
8:54 PM 39.9°F 37.9°F 93% 29.56 in 4.0 miles ENE 19.6 mph 36.8 mph 0.19 in Rain Rain
9:54 PM 39.9°F 37.9°F 93% 29.53 in 7.0 miles ENE 27.6 mph 40.3 mph 0.06 in Rain Rain
10:17 PM 39.2°F 37.4°F 93% 29.48 in 4.0 miles ENE 32.2 mph 41.4 mph 0.08 in Rain Rain
10:54 PM 39.9°F 37.9°F 93% 29.44 in 5.0 miles ENE 33.4 mph 39.1 mph 0.13 in Rain Rain
11:15 PM 39.2°F 37.4°F 93% 29.40 in 10.0 miles NE 29.9 mph 47.2 mph 0.01 in Rain Light Rain
11:28 PM 41.0°F 39.2°F 93% 29.40 in 10.0 miles NE 28.8 mph 38.0 mph 0.03 in Rain Light Rain
11:54 PM 41.0°F 39.0°F 93% 29.37 in 10.0 miles NE 31.1 mph 43.7 mph 0.03 in Rain Light Rain
Astronomy
Sunrise:07:20 AM (EST) Moon Rise:03:32 PM (EST)12/26
Sunset:04:41 PM (EST) Moon Set:05:42 AM (EST)12/26
Moon Phase
Dec. 26 Dec. 28 Jan. 04 Jan. 11 Jan. 18

Copyright © 2014 The Weather Underground, Inc.